Location: Bacharowice
(49.9333°N, 19.5833°E)
Time: 22:39:58
(UTC+00:00)

Cosmos 1066 Rocket - Pass Details

Date: 11 May 2021
Orbit: 798 x 895 km, 81.2° (Epoch: 21 June)

Event Time Altitude Azimuth Distance (km) Brightness Sun altitude
Exits shadow 22:46:53 44° 159° (SSE) 1,200 4.5 -21.9°
Maximum altitude 22:48:37 65° 97° (E) 958 4.4 -21.9°
Drops below altitude 10° 22:54:13 10° 17° (NNE) 2,494 7.7 -21.8°
Sets 22:56:38 0° 15° (NNE) 3,420 8.8 -21.8°
